Location: Newark
(32.9900°N, 111.5400°W)
Time: 17:26:11
(UTC+00:00)

Envisat - Pass Details

Date: 18 November 2019
Orbit: 764 x 766 km, 98.1° (Epoch: 07 December)

Event Time Altitude Azimuth Distance (km) Brightness Sun altitude
Rises 13:20:51 0° 28° (NNE) 3,233 6.4 -8.4°
Reaches altitude 10° 13:23:34 10° 41° (NE) 2,303 5.8 -7.9°
Maximum altitude 13:27:41 25° 96° (E) 1,519 5.7 -7.1°
Drops below altitude 10° 13:31:46 10° 150° (SSE) 2,291 6.3 -6.2°
Sets 13:34:27 0° 164° (SSE) 3,213 6.8 -5.7°
